EHI
1 5 12 12 11 11 10 7 6 5 5 4 1 1 1 1 1 2 2 3 3 3 3 2 1 0 0 0 0 1 2 3 2 0 0 0 0 0 0 0 0 0 0
0 4 9 12 12 12 10 6 5 4 4 3 2 1 1 2 2 2 2 2 3 3 3 3 2 1 0 0 0 1 3 4 2 1 0 0 0 0 0 0 0 0 0
0 2 6 10 12 12 9 6 4 3 3 2 2 2 3 4 4 4 3 2 1 2 3 3 3 2 1 0 0 1 3 3 2 1 0 0 0 1 0 0 0 0 0
2 3 5 8 11 11 8 5 3 2 1 1 1 2 3 4 5 6 5 3 1 1 2 2 3 2 1 0 0 1 2 2 1 0 0 0 0 0 0 0 0 0 0
3 4 5 7 9 9 7 4 3 1 0 0 0 1 1 2 3 4 5 5 2 1 1 1 1 2 2 1 1 1 2 2 1 0 0 0 0 1 1 1 0 0 0
4 4 4 6 7 7 5 4 3 1 0 0 0 0 0 1 1 2 3 4 3 2 1 0 0 1 1 1 2 2 2 1 0 0 1 0 1 3 4 4 3 2 0
3 2 2 5 7 7 5 4 3 2 0 0 0 0 0 0 0 1 1 2 3 3 2 1 1 1 1 1 1 2 3 2 0 0 0 0 1 4 6 7 7 4 2
1 2 2 4 7 8 6 4 3 2 1 0 0 0 0 0 0 0 1 1 2 3 3 2 3 3 3 3 2 2 2 1 0 0 0 0 3 6 8 9 9 7 4
0 1 2 4 6 6 5 4 3 2 1 1 0 0 0 0 0 0 0 1 1 1 2 2 3 4 4 5 4 3 2 1 0 0 0 2 6 11 10 8 9 9 8
0 1 2 3 2 2 3 4 4 2 1 1 1 1 1 1 1 0 0 0 0 0 0 1 3 4 4 5 5 5 4 3 1 0 0 3 11 15 12 9 9 11 11
2 2 2 1 1 0 1 2 3 2 1 0 1 1 1 1 1 1 0 0 0 0 1 2 4 4 3 4 5 6 5 4 2 1 2 5 12 15 13 9 8 10 11
5 4 1 0 0 0 0 1 3 3 2 1 0 1 1 1 0 1 1 1 1 1 2 3 5 6 4 3 4 5 4 2 1 2 4 8 12 13 11 8 8 8 8
5 4 2 0 0 0 1 1 3 3 2 1 0 1 2 2 2 2 3 4 3 2 2 4 6 6 5 2 2 3 2 1 1 1 5 10 11 10 9 7 6 7 8
5 4 3 2 2 2 2 2 2 2 1 0 0 1 2 3 3 4 5 5 3 2 3 4 4 5 4 2 2 2 1 1 0 1 4 7 7 6 5 5 4 5 7
5 5 4 3 3 3 2 1 1 1 0 0 0 0 2 3 3 4 4 2 2 3 4 5 4 4 3 3 2 1 0 0 0 1 2 3 2 2 2 3 4 4 5
5 6 5 4 4 3 1 0 0 0 0 0 0 0 1 2 2 2 2 1 0 1 2 4 4 4 4 4 3 1 0 0 0 1 1 2 2 1 1 1 3 4 5
5 6 6 6 6 5 2 0 0 0 0 1 1 0 0 1 2 2 2 1 0 0 0 1 2 3 4 4 3 1 0 0 0 0 1 2 3 2 1 1 1 3 4
6 7 8 7 6 6 4 1 0 0 1 2 1 0 0 0 1 2 2 1 1 0 0 0 0 1 2 3 2 1 0 0 0 0 0 2 3 3 1 0 0 1 2
8 10 10 8 7 7 5 3 1 0 1 1 1 0 0 0 1 1 1 2 2 1 1 1 1 1 0 1 1 0 0 0 0 0 0 1 2 2 1 0 0 0 1
11 12 12 10 10 9 7 5 3 2 1 1 1 0 0 0 0 0 0 1 1 1 2 2 2 2 1 1 1 0 0 0 0 0 0 1 2 2 1 0 0 0 0
13 14 14 13 13 12 10 9 7 5 3 2 2 1 0 0 0 0 0 0 0 1 3 3 3 3 2 2 2 1 1 0 0 0 1 2 3 2 1 0 0 1 1
12 13 13 14 15 15 14 13 11 8 5 4 4 4 2 0 0 0 0 0 1 2 3 3 3 3 3 3 3 3 2 1 1 1 2 3 3 2 1 0 1 2 1
8 9 11 14 17 18 17 16 14 11 6 5 5 5 4 2 1 0 0 0 2 3 3 3 3 3 3 3 3 3 3 3 2 1 1 2 2 1 0 0 2 2 2
4 6 11 16 20 20 18 16 15 12 8 6 6 6 5 4 3 1 0 0 1 2 1 1 2 3 3 3 3 3 3 3 3 3 2 1 1 0 1 1 1 1 2
6 9 15 20 24 24 20 16 15 13 10 8 7 7 6 5 3 2 1 1 1 2 1 1 2 3 3 3 3 3 3 4 5 4 3 2 1 1 1 1 0 1 2
9 12 18 24 27 28 23 18 16 15 12 9 9 8 6 4 3 2 2 2 2 3 2 2 2 3 3 3 3 3 4 5 5 4 3 3 2 1 1 1 0 0 1
Wind_Speed
4 6 9 6 6 6 6 6 6 5 5 6 6 6 6 6 6 6 6 7 7 7 7 7 8 10 10 10 10 10 9 8 8 9 9 9 9 9 9 9 10 8 10
6 7 9 6 6 6 6 5 5 5 5 6 6 6 6 6 6 6 7 7 7 7 6 6 7 10 9 10 10 10 10 9 9 9 9 9 9 9 9 8 7 5 10
6 8 8 7 6 6 6 6 5 5 6 6 6 6 6 6 6 6 6 6 6 6 6 6 8 9 9 9 10 10 9 9 9 9 9 7 9 10 9 8 8 8 9
6 7 7 8 6 6 6 5 6 6 6 6 6 6 6 6 6 6 6 6 6 6 6 6 7 8 8 8 9 9 9 9 9 9 7 6 7 10 10 9 9 9 9
6 6 9 7 6 6 6 6 6 5 5 5 5 5 5 6 6 6 6 6 5 5 6 6 6 7 7 7 8 8 8 9 9 9 6 5 5 9 10 9 9 9 9
6 6 9 6 6 6 6 6 5 5 5 5 6 6 5 5 5 5 5 5 5 5 6 7 7 7 7 7 6 7 7 8 9 7 5 5 4 8 9 9 9 9 10
6 5 8 7 6 6 6 6 6 5 6 6 6 6 5 5 5 5 4 4 4 5 6 7 6 6 6 6 6 6 6 8 7 5 5 5 4 8 8 8 8 8 9
6 5 8 7 6 6 6 6 6 6 7 6 6 5 5 5 4 4 4 4 4 5 5 6 6 5 5 6 6 6 6 7 7 6 5 4 6 7 8 8 9 9 9
6 5 6 7 8 8 7 6 6 6 6 6 6 5 5 4 4 4 4 5 4 5 5 5 5 5 5 5 5 5 5 6 6 4 5 4 7 8 8 8 9 9 9
6 6 6 6 6 6 7 8 6 5 6 5 5 5 4 5 6 6 5 5 4 4 4 4 4 4 4 4 4 5 6 7 6 4 3 4 8 8 7 7 8 9 9
6 5 5 5 5 4 5 7 6 6 6 4 5 5 3 2 3 4 5 5 4 3 4 4 4 4 5 6 6 7 7 4 4 3 2 5 7 8 7 7 8 8 9
5 5 4 4 4 4 4 4 3 4 4 3 3 2 2 2 2 2 6 5 4 4 4 4 5 6 6 4 6 9 4 4 3 3 3 6 7 8 8 8 8 8 8
4 4 4 4 4 4 3 3 2 2 3 3 3 2 2 1 2 2 2 4 3 4 2 4 4 2 1 1 1 2 2 2 2 2 4 7 7 7 8 8 8 8 8
4 4 4 5 4 4 3 3 2 2 2 2 3 2 2 1 1 1 1 2 1 1 1 1 1 1 1 1 2 2 2 2 1 1 3 7 7 7 8 8 8 8 8
4 4 5 4 5 4 3 1 3 3 2 3 2 2 2 1 2 2 2 2 1 1 1 1 1 1 1 1 1 1 1 1 1 2 3 7 7 7 8 8 8 8 9
4 4 5 5 5 4 3 2 2 2 2 2 2 3 2 2 2 1 2 2 2 2 2 1 0 1 1 0 1 0 1 1 1 1 2 5 8 8 8 8 8 8 8
4 4 5 5 5 4 3 3 2 2 3 2 2 2 2 2 2 1 2 2 2 2 1 1 1 1 1 1 1 0 0 0 0 1 1 2 5 8 8 7 7 6 7
4 5 4 3 5 4 3 2 2 2 3 2 2 2 3 3 2 2 2 2 2 1 2 1 1 1 1 1 1 1 1 1 1 1 1 2 2 3 7 8 6 5 6
4 4 4 3 3 3 3 2 2 2 2 2 2 2 3 2 2 2 2 2 1 2 2 2 3 2 1 1 1 1 1 1 1 1 1 1 2 3 3 8 8 6 5
4 4 4 4 3 3 3 2 2 2 2 2 2 3 3 2 3 2 1 2 2 1 2 2 2 2 1 1 1 2 1 1 1 1 0 1 2 3 3 4 5 7 7
5 5 4 3 4 3 2 1 2 1 1 2 2 3 3 3 3 2 2 2 2 2 2 2 2 1 1 1 1 1 2 2 2 1 1 1 1 2 3 3 2 2 5
5 5 5 4 4 3 2 2 1 1 1 2 2 3 3 3 3 2 3 2 3 2 2 2 2 2 2 1 2 1 1 2 2 2 1 1 1 1 2 3 3 3 2
5 5 4 4 4 3 3 3 3 2 1 2 2 2 3 3 3 3 3 3 2 2 2 2 2 2 1 1 2 3 2 1 1 2 2 1 1 1 1 2 3 3 3
6 6 5 5 5 4 4 3 3 2 1 2 1 2 2 3 3 3 2 2 2 2 2 2 2 2 2 1 1 1 2 2 2 1 2 2 1 1 1 1 2 3 3
7 6 6 6 5 5 4 4 3 2 2 2 2 3 2 3 2 2 2 2 2 2 2 3 2 3 2 3 2 1 1 0 1 1 0 1 1 1 1 2 2 2 3
7 7 7 7 5 5 4 4 3 3 2 2 2 2 1 1 2 2 2 2 2 2 2 2 2 2 3 3 3 2 1 1 1 0 0 1 0 0 1 1 1 2 2
Wind_Direction
112 112 113 120 121 122 126 129 128 129 134 142 143 145 143 145 145 146 149 151 150 151 159 164 169 166 162 160 159 155 154 160 160 158 158 160 163 160 160 165 176 167 145
112 113 115 115 117 120 122 122 123 122 127 136 139 144 144 146 148 147 147 149 151 152 156 161 160 157 157 157 158 159 160 165 165 166 167 169 164 163 164 172 186 141 145
113 119 124 114 113 115 116 118 119 118 119 124 132 139 144 145 146 147 146 148 149 152 151 146 146 148 154 156 158 159 163 166 168 173 182 181 166 166 170 176 171 160 161
107 116 113 112 115 115 116 118 117 117 120 124 130 137 139 140 142 145 147 145 147 148 145 142 143 149 151 155 160 165 170 174 174 183 189 178 173 161 171 176 172 171 171
101 109 108 114 114 112 113 116 116 120 126 132 134 134 136 136 138 144 146 146 148 146 143 146 151 151 152 159 164 170 174 176 183 199 187 180 174 153 169 175 175 176 174
112 113 108 115 114 114 112 113 113 120 127 134 133 132 134 136 138 140 147 149 154 155 155 155 155 154 158 162 164 171 175 185 198 194 184 185 179 155 168 174 175 174 172
103 103 112 117 116 112 112 109 103 108 121 128 129 127 130 136 137 139 144 147 149 152 148 149 152 154 156 158 161 169 183 200 212 192 180 182 170 153 166 172 174 175 175
98 96 103 116 118 114 112 112 110 106 112 119 123 122 124 125 130 133 131 134 136 139 141 146 153 153 158 166 172 183 200 217 204 196 187 181 162 159 170 175 179 181 180
96 93 98 120 130 132 125 115 111 110 109 111 114 116 117 121 126 129 131 133 139 144 148 153 156 156 162 168 179 193 202 218 228 201 190 182 157 167 178 182 182 180 175
94 89 91 105 113 131 133 126 117 112 108 106 107 107 120 148 152 150 152 134 139 145 153 159 167 175 177 177 188 199 211 223 216 203 196 164 151 165 179 184 184 181 179
87 84 86 97 106 110 111 120 140 136 127 138 132 128 167 141 125 147 112 124 143 146 151 161 174 183 193 189 197 211 223 220 202 204 200 148 157 171 180 184 185 183 183
90 87 88 89 94 96 98 111 126 124 116 108 85 96 93 81 100 114 122 142 152 155 165 171 190 205 217 192 190 210 220 212 208 196 167 153 166 177 184 185 185 187 187
94 86 89 94 95 94 97 101 98 105 108 115 105 99 82 81 115 122 132 149 156 171 162 161 191 196 186 177 224 217 228 230 205 196 159 162 177 183 187 189 190 190 189
90 86 85 91 91 81 77 94 110 108 104 94 91 56 79 75 62 68 92 93 113 111 132 172 155 124 151 203 220 222 226 225 204 189 155 163 181 188 191 192 193 194 193
97 94 95 96 98 104 105 84 90 87 91 98 91 78 57 72 68 69 77 75 81 100 139 154 126 128 189 194 206 202 225 225 216 214 154 164 181 189 194 194 195 197 197
105 99 100 109 110 110 112 105 91 97 97 85 82 69 56 58 59 54 89 73 60 45 19 8 115 176 179 124 196 190 245 231 188 216 180 167 179 185 190 194 199 203 203
115 107 110 115 112 109 108 114 104 97 85 75 78 79 62 56 50 33 56 67 53 34 28 30 32 53 110 132 136 159 174 134 106 174 187 179 171 173 180 184 193 196 195
121 116 115 114 114 116 106 86 76 70 76 74 77 76 64 54 39 18 37 55 39 20 28 29 9 33 61 67 70 47 62 102 122 174 173 165 174 173 163 164 173 178 179
131 125 124 118 119 122 122 121 101 87 74 74 72 64 61 59 43 23 29 37 8 14 16 8 37 19 50 55 77 90 63 79 102 126 136 145 154 181 167 155 165 169 170
142 136 135 136 129 136 141 135 116 87 87 79 71 53 36 46 42 16 57 38 1 21 18 26 26 33 27 42 40 62 51 78 114 102 136 119 151 168 161 159 172 167 164
153 150 150 149 145 158 155 152 131 104 82 83 84 64 45 31 36 22 23 40 8 28 17 16 11 59 55 45 80 111 121 114 95 94 74 67 100 135 142 158 178 157 157
156 155 154 157 151 162 137 131 114 88 77 69 57 64 42 37 28 42 28 9 30 33 29 15 0 359 28 24 326 301 156 141 135 96 96 116 94 116 142 145 132 141 164
164 164 156 153 151 153 148 150 135 141 146 104 81 72 46 41 41 38 34 20 18 9 39 7 349 4 7 19 352 329 329 22 96 121 110 96 97 105 128 136 143 140 152
168 161 159 156 153 153 160 150 144 125 93 71 62 66 60 56 50 55 48 30 4 7 23 338 21 333 313 331 26 342 344 358 310 136 134 113 128 131 122 137 143 139 143
164 159 155 152 149 150 151 149 165 145 123 104 91 85 58 67 55 46 38 27 8 359 5 351 354 330 321 324 335 336 344 280 274 288 56 55 93 114 142 161 156 147 150
163 160 156 152 149 152 156 151 153 135 122 106 99 96 101 88 68 49 34 15 354 357 357 337 332 337 335 336 324 328 319 323 317 332 227 226 45 150 171 167 184 175 173